sat.trackr.live / text

‹ back to catalog

STARLINK-35476

NORAD 66825 · 2025-280E

PAYLOAD ACTIVE UNKNOWN

§ Identity

Operator
Country
US
Launch date
2025-12-02
Launch site
AFWTR
Launch vehicle
Mass (kg)
RCS (m²)

Purposes: comms

External: N2YO · Heavens-Above · Gunter

§ Orbital elements

Epoch: 2026-05-25T03:18:35.035200Z

Period
96.11 min
Inclination
70.0004°
Eccentricity
0.0003802
Mean motion
14.98334245 rev/d
Perigee alt
569.4 km
Apogee alt
574.7 km
Semi-major
6,950.2 km
B*
1.5708e-4
RAAN
141.8443°
Arg perigee
266.4093°
Mean anomaly
93.6631°
Rev number
2,751

§ Raw data

STARLINK-354761 66825U 25280E   26145.13790550  .00001782  00000+0  15708-3 0  99932 66825  70.0004 141.8443 0003802 266.4093  93.6631 14.98334245 27514

JSON: /api/v1/satellites/66825 · /tle

For live sub-satellite position, see the globe view (requires WebGL).

§ Visibility from observer

Set your observer location to see the next 7 days of passes ≥ 10°. The values pass through the URL so the page stays shareable.

No JS? Fill the form by hand. The geolocation button needs JavaScript.